Weather in Yangikishlak

Uzbekistan     40°25′02″N   67°10′44″E
temp.,
°C
wind,
m/s
gust,
m/s
humid.,
%
clouds,
%
prec.,
mm/h
press.,
hPa
HPBL,
m
17 may, mon
mon1723:00+21w22250 0.0 101011
02:00+20w44300 0.0 101025
05:00+18wnw33370 0.0 101218
08:00+22wnw11290 0.0 1012245
11:00+28ene33220 0.0 1012871
14:00+32e56161 0.0 10102947
17:00+32ene54155 0.0 10093114
20:00+27e46210 0.0 100969
18 may, tue
tue1823:00+24wnw22270 0.0 100813
02:00+23wsw22310 0.0 100811
05:00+21w01360 0.0 100811
08:00+26nne11250 0.0 1009229
11:00+31nne22180 0.0 10081177
14:00+34ene15103 0.0 10064470
17:00+34sw6670 0.0 10053224
20:00+28ssw68120 0.0 100576
19 may, wed
wed1923:00+26sw55110 0.0 100546
02:00+24sw33140 0.0 100519
05:00+23sw33150 0.0 100513
08:00+28w23140 0.0 1006273
11:00+32wnw2790 0.0 10053465
14:00+34nnw4590 0.0 10044181
17:00+34nnw34984 0.0 10044367
20:00+28w33123 0.0 100421
20 may, thu
thu2023:00+26w3314100 0.0 100513
02:00+25sw1219100 0.0 100511
05:00+23s112391 0.0 100511
08:00+29s1114100 0.0 1007169
11:00+32ne331285 0.0 10071652
14:00+34nnw3210100 0.0 10064590
17:00+32wnw1181499 0.0 10071951
20:00+27wnw122242 0.0 100814
21 may, fri
fri2123:00+26sw332146 0.0 100815
02:00+24sw332537 0.0 100817
05:00+23wsw222676 0.0 100812
08:00+27wnw442399 0.0 1010349
11:00+31nnw321889 0.0 10101565
14:00+33n331491 0.0 10083696
17:00+32wsw541883 0.1 1008891
20:00+20sw111155100 1.4 1012276